San Jose/Bolanos, Costa Rica

8:33 AM CST on February 23, 2017 (GMT -0600)
Tobias Bolanos International

Weather History for MRPV - March, 2014

Change the Weather History Date:

Tuesday, March 11, 2014

  Actual Average Record
Temperature  
Mean Temperature 73 °F -  
Max Temperature 83 °F 79 °F 86 °F (2001)
Min Temperature 63 °F 67 °F 62 °F (2009)
Cooling Degree Days 8    
Growing Degree Days 23 (Base 50)    
Moisture  
Dew Point 57 °F    
Average Humidity 51    
Maximum Humidity 68    
Minimum Humidity 31    
Precipitation  
Precipitation 0.00 in - - ()
Sea Level Pressure  
Sea Level Pressure 29.94 in    
Wind  
Wind Speed 8 mph ()    
Max Wind Speed 13 mph    
Max Gust Speed -    
Visibility 6.1 miles    
Events      
Averages and records for this station are not official NWS values.
T = Trace of Precipitation, MM = Missing Value Source: Averaged Metar Reports

Daily Weather History Graph

Daily Weather History Graph

Search for Another Location

Airport or City:

Trip Planner

Search our weather history database for the weather conditions in past years. The results will help you decide how hot, cold, wet, or windy it might be!

Date:

Astronomy

Mar. 11, 2014 Rise Set
Actual Time 5:45 AM CST 5:47 PM CST
Civil Twilight 5:24 AM CST 6:08 PM CST
Nautical Twilight 5:00 AM CST 6:32 PM CST
Astronomical Twilight 4:35 AM CST 6:57 PM CST
Moon 1:59 PM CST (3/11) 2:00 AM CST (3/11)
Length of Visible Light 12h 43m
Length of Day
12h 01m
Waxing Gibbous, 78% of the Moon is Illuminated
Mar 11
Waxing Gibbous
Mar 16
Full
Mar 23
Last Quarter
Mar 30
New
Apr 7
First Quarter

Hourly Weather History & Observations

Time (CST) Temp. Heat Index Dew Point Humidity Pressure Visibility Wind Dir Wind Speed Gust Speed Precip Events Conditions
6:00 AM 64 °F - 54 °F 63% 29.88 in 6 mi ESE 9.2 mph - -   Clear
6:00 AM 64.4 °F - 53.6 °F 68% 30.01 in - ESE 9.2 mph - N/A   Clear
7:00 AM 66.2 °F - 53.6 °F 64% 30.03 in - East 9.2 mph - N/A   Clear
8:00 AM 71.6 °F - 53.6 °F 53% 30.03 in - ESE 11.5 mph - N/A   Clear
9:00 AM 75 °F - 55 °F 40% 29.86 in 6 mi East 11.5 mph - -   Clear
9:00 AM 75.2 °F - 55.4 °F 50% 30.05 in - East 11.5 mph - N/A   Clear
10:00 AM 77.0 °F - 55.4 °F 47% 30.04 in - ENE 11.5 mph - N/A   Clear
11:00 AM 78.8 °F - 55.4 °F 44% 30.02 in 6.2 mi East 9.2 mph - N/A   Partly Cloudy
12:00 PM 81 °F - 56 °F 31% 29.82 in 6 mi East 10.4 mph - -   Scattered Clouds
12:00 PM 80.6 °F 80.5 °F 55.4 °F 42% 29.99 in 6.2 mi East 10.4 mph - N/A   Partly Cloudy
1:00 PM 82.4 °F 82.0 °F 57.2 °F 42% 29.96 in 6.2 mi East 12.7 mph - N/A   Partly Cloudy
2:00 PM 82.4 °F 82.0 °F 57.2 °F 42% 29.93 in 6.2 mi East 10.4 mph - N/A   Scattered Clouds
2:25 PM 80.6 °F 82.3 °F 64.4 °F 58% 29.93 in 6.2 mi SSW 5.8 mph - N/A   Scattered Clouds
3:00 PM 78 °F - 59 °F 43% 29.79 in 6 mi WSW 4.6 mph - -   Haze
3:00 PM 78.8 °F - 59.0 °F 51% 29.93 in 6.2 mi WSW 4.6 mph - N/A   Mostly Cloudy
3:15 PM 77.0 °F - 59.0 °F 54% 29.92 in 6.2 mi East 6.9 mph - N/A   Scattered Clouds
4:00 PM 77.0 °F - 59.0 °F 54% 29.93 in 6.2 mi East 11.5 mph - N/A   Scattered Clouds
5:00 PM 75.2 °F - 59.0 °F 57% 29.94 in 6.2 mi ENE 8.1 mph - N/A   Mostly Cloudy
6:00 PM 72 °F - 60 °F 56% 29.83 in 6 mi ENE 9.2 mph - -   Mostly Cloudy
6:00 PM 71.6 °F - 59.0 °F 64% 29.96 in 6.2 mi ENE 9.2 mph - N/A   Scattered Clouds